CAPE
19 7 30 40 29 45 94 129 282 655 717 786 849 940 933 1063 1096 923 610 754 906 833 810 767 593 535 387 402 595 733 859 831 740 587 387 797 926 1218 1412 1204 1624 1910 1569
76 39 11 0 0 0 0 69 135 181 425 851 855 929 999 1042 1040 999 828 792 779 772 970 880 752 859 842 989 960 926 1004 936 992 1012 887 1222 1493 1437 1282 1339 2031 1751 2049
152 112 38 2 0 0 0 0 7 117 94 211 532 954 1119 1065 960 1020 913 860 925 959 883 1181 1094 952 1031 1322 1322 1332 1390 1527 1397 1334 1416 1357 1336 1265 1411 1937 2144 2050 1235
185 241 152 76 13 11 0 0 0 2 34 78 292 738 986 942 1020 1054 1042 1000 975 1064 1044 1034 1056 1159 1236 1204 1160 1276 1607 1442 1341 1326 1305 1362 1498 1693 1787 1678 1448 1396 1436
46 157 227 227 141 3 4 0 0 0 0 6 120 450 998 1173 1127 1106 1061 1098 1084 1136 1200 1186 1188 1168 1161 1442 1478 1474 1255 1426 1598 1552 1521 1513 1466 1365 1375 1750 1547 1438 1612
268 203 247 252 286 160 1 0 0 0 0 0 0 35 259 743 1078 1118 1106 1136 1228 1140 1084 1039 1098 1126 1066 1089 1356 1747 1912 1905 1714 1632 1650 1657 1662 1619 1509 1461 1358 1511 1739
408 366 335 335 367 422 282 32 0 0 0 0 0 0 0 117 433 775 1010 1159 1108 988 944 929 876 1037 968 961 1093 1016 1138 1356 1670 1906 1799 1740 1693 1573 1512 1422 1460 1713 1852
400 562 507 545 455 482 576 438 196 22 4 3 0 0 0 0 8 85 369 915 1109 1053 1026 1010 917 909 1018 1004 1177 1236 1245 1287 1179 1239 1418 1652 1672 1686 1533 1610 1653 1738 1611
67 449 782 810 897 725 708 707 629 393 205 137 48 0 0 37 65 35 53 403 829 975 992 1022 1070 1051 1006 1003 1132 1197 1174 1325 1437 1246 1186 1218 1207 1229 1173 1352 1585 1497 1518
55 94 354 367 1307 1259 1156 1004 881 742 649 473 367 110 89 230 111 91 261 533 498 812 1084 1036 893 866 829 938 1033 1136 1122 1117 1217 1170 1080 1031 1066 1069 969 916 1381 1603 1636
3 0 28 155 482 559 1002 1274 1219 1076 947 875 794 552 319 334 507 185 96 607 535 552 642 758 859 573 467 623 754 1132 1161 1270 1259 1160 1076 1038 1125 1226 1289 1163 1254 1509 1787
0 0 0 8 75 300 1199 1190 1306 1275 1159 1074 1034 978 792 511 378 493 373 332 653 658 717 863 794 695 516 414 294 451 745 856 1088 1081 1094 1221 1282 1111 1037 1159 1327 1355 1419
0 0 0 0 0 101 729 1304 1272 1299 1325 1213 1154 1070 1035 958 791 399 281 312 478 932 1064 1032 1048 909 720 433 284 350 283 308 582 684 879 872 743 785 947 1061 1101 1194 1508
2 0 0 0 1 36 562 1256 1339 1353 1393 1304 1269 1181 1031 1115 1241 1117 660 331 308 403 771 1069 1240 1191 1012 899 637 357 221 402 559 589 571 604 677 816 813 858 1054 1257 2260
0 0 0 0 0 0 36 1116 1427 1446 1454 1442 1332 1263 1211 1146 1131 1315 1339 1061 899 847 862 867 1130 1052 1261 1106 896 848 654 578 609 547 580 748 725 550 629 736 1063 2034 2495
0 0 0 0 0 0 4 280 1069 1214 1259 1223 1212 1270 1278 1283 1208 1099 1150 1230 1053 797 749 1115 1151 1207 1206 1182 1289 1050 860 858 843 655 582 550 666 770 805 932 1441 2245 2440
0 0 0 0 0 0 0 28 745 1480 855 837 798 1033 1093 1395 1049 1105 1003 1029 869 836 1443 1332 1354 1413 1326 1283 1197 1299 1286 1136 952 799 741 786 967 1226 1240 1331 1907 2273 2310
0 0 0 0 0 1 3 0 26 1028 2049 1906 1197 997 936 1022 1052 1125 1031 476 563 331 1279 1474 1534 1392 1470 1466 1418 1412 1400 1392 1267 1213 1097 1061 1071 1238 1468 1420 2005 2197 1806
0 0 0 0 0 0 0 1 1 75 1553 2158 1794 1027 734 524 444 425 361 1400 1445 1107 935 1353 1405 1553 1558 1544 1515 1445 1458 1447 1347 1295 1244 1183 842 791 1197 1430 1580 1467 1129
0 0 0 0 0 2 2 0 0 60 655 1948 2059 1906 1187 575 1069 1002 581 863 1120 1227 966 858 1291 1325 1300 1376 1310 1104 1133 1092 712 407 241 11 0 0 0 0 69 598 767
0 0 0 1 0 4 3 3 4 116 411 1132 1663 1583 1293 1450 1472 1273 749 707 858 911 862 739 648 677 647 679 624 347 194 68 14 1 4 13 0 0 4 0 10 0 170
1 2 4 6 2 2 2 5 3 70 417 607 938 629 481 684 606 394 194 97 55 61 30 78 30 1 0 4 6 19 10 1 3 3 0 0 0 0 2 19 4 29 40
3 4 5 5 3 5 1 5 4 1 66 556 401 201 233 88 16 5 5 7 14 15 12 7 3 0 0 0 0 0 0 0 0 0 0 0 0 3 0 1 0 0 0
6 6 8 7 2 4 5 4 10 10 2 0 11 3 4 2 6 9 16 16 17 16 10 5 2 0 0 0 0 0 0 0 0 0 0 0 0 0 0 0 0 0 0
5 7 7 8 2 5 7 4 3 10 12 5 4 5 8 10 15 17 15 15 13 12 6 3 0 0 0 0 0 0 0 0 0 0 0 0 0 0 0 0 0 0 0
2 5 6 8 8 8 7 7 5 1 9 9 11 9 7 9 9 7 8 8 8 7 5 5 5 4 0 0 0 0 0 0 0 0 0 0 0 0 0 0 0 0 0
CIN
-309 -87 -263 -264 -239 -177 -140 -132 -101 -63 -75 -66 -52 -49 -47 -50 -47 -49 -57 -47 -47 -51 -66 -69 -71 -94 -105 -130 -135 -131 -125 -144 -130 -169 -251 -209 -178 -163 -145 -204 -165 -133 -187
-307 -294 -186 -2 0 0 0 -180 -151 -109 -80 -66 -68 -57 -55 -54 -54 -47 -48 -46 -46 -51 -47 -55 -65 -67 -78 -78 -96 -87 -100 -146 -144 -131 -184 -150 -135 -149 -177 -189 -115 -161 -138
-281 -278 -295 -70 0 0 0 0 -30 -161 -138 -105 -74 -53 -46 -62 -67 -59 -51 -47 -48 -46 -48 -34 -45 -57 -60 -46 -56 -65 -72 -77 -105 -121 -124 -174 -184 -178 -171 -126 -116 -148 -252
-224 -235 -240 -280 -307 -319 0 0 0 -56 -189 -144 -103 -59 -50 -57 -63 -68 -65 -60 -66 -59 -52 -54 -60 -53 -57 -60 -73 -69 -48 -70 -96 -120 -147 -157 -156 -144 -131 -153 -211 -243 -237
-203 -216 -222 -239 -271 -80 -188 0 0 0 0 -60 -165 -107 -50 -46 -55 -57 -63 -67 -64 -69 -71 -65 -76 -79 -82 -59 -53 -64 -80 -65 -59 -75 -108 -132 -158 -158 -145 -141 -198 -245 -232
-180 -191 -206 -210 -215 -269 -5 0 0 0 0 0 0 -225 -147 -68 -43 -46 -42 -50 -59 -63 -74 -92 -97 -88 -106 -108 -82 -54 -37 -30 -48 -59 -77 -92 -119 -124 -138 -155 -213 -224 -209
-155 -163 -181 -206 -199 -227 -252 -87 0 0 0 0 0 0 0 -210 -124 -69 -49 -39 -45 -62 -75 -82 -98 -100 -112 -116 -106 -117 -114 -91 -59 -39 -57 -84 -93 -115 -120 -149 -183 -180 -165
-145 -131 -159 -157 -199 -205 -194 -226 -242 -144 -175 -174 0 0 0 0 -80 -209 -127 -52 -41 -56 -66 -77 -88 -92 -103 -101 -86 -80 -92 -98 -116 -112 -98 -95 -89 -101 -114 -106 -142 -165 -222
-342 -174 -77 -89 -98 -122 -160 -170 -177 -190 -227 -269 -312 0 0 -375 -343 -260 -240 -133 -77 -89 -90 -89 -84 -96 -113 -119 -79 -86 -86 -93 -101 -123 -124 -128 -140 -145 -169 -166 -138 -182 -201
-374 -365 -198 -201 -31 -48 -90 -116 -125 -119 -140 -178 -217 -302 -319 -291 -332 -336 -237 -133 -138 -102 -96 -114 -141 -132 -147 -133 -102 -82 -85 -127 -94 -105 -115 -150 -170 -187 -211 -278 -169 -137 -147
0 -125 -382 -297 -158 -145 -92 -88 -81 -120 -96 -133 -166 -212 -272 -278 -243 -309 -307 -141 -147 -145 -167 -165 -189 -239 -233 -186 -165 -109 -116 -99 -83 -102 -122 -140 -167 -174 -186 -235 -237 -179 -103
0 0 0 -490 -393 -266 -103 -128 -100 -81 -103 -111 -144 -169 -213 -262 -288 -258 -256 -237 -159 -136 -160 -159 -187 -216 -228 -214 -234 -213 -166 -141 -96 -116 -143 -148 -169 -202 -203 -214 -218 -254 -246
0 0 0 0 -10 -458 -215 -113 -110 -81 -95 -110 -132 -162 -175 -208 -228 -301 -304 -270 -203 -100 -102 -123 -118 -165 -180 -211 -273 -252 -248 -265 -207 -198 -195 -223 -241 -213 -224 -260 -247 -260 -199
0 0 0 0 -84 -540 -302 -175 -112 -118 -115 -134 -155 -142 -179 -173 -208 -180 -241 -291 -278 -230 -150 -96 -90 -104 -127 -145 -191 -266 -317 -262 -219 -223 -246 -270 -256 -231 -241 -274 -256 -204 -73
0 0 0 0 0 0 -542 -198 -118 -153 -160 -175 -181 -138 -146 -198 -268 -210 -171 -204 -216 -207 -151 -120 -89 -109 -81 -120 -169 -191 -222 -213 -220 -263 -266 -235 -233 -262 -263 -253 -216 -59 -29
0 0 0 0 0 0 -111 -345 -175 -198 -205 -224 -194 -141 -127 -181 -177 -231 -205 -150 -152 -151 -109 -76 -96 -88 -102 -120 -110 -162 -191 -178 -187 -219 -250 -272 -231 -203 -178 -179 -105 -27 -21
0 0 0 0 0 0 0 -526 -196 -144 -279 -267 -260 -220 -171 -135 -176 -177 -191 -142 -133 -123 -40 -56 -71 -86 -120 -130 -145 -119 -119 -160 -180 -201 -220 -198 -161 -115 -115 -106 -34 -18 -15
0 0 0 0 0 0 0 0 -452 -136 -30 -73 -190 -237 -255 -214 -166 -147 -124 -226 -199 -295 -77 -66 -79 -121 -114 -114 -116 -109 -96 -89 -99 -87 -101 -109 -113 -93 -71 -76 -34 -21 -22
0 0 0 0 0 0 0 0 0 -420 -41 -23 -88 -274 -351 -370 -341 -316 -316 -46 -41 -104 -138 -82 -102 -85 -94 -84 -73 -74 -78 -76 -70 -61 -64 -69 -147 -202 -45 -18 -50 -56 -68
0 0 0 0 0 0 0 0 0 -475 -192 -12 -19 -98 -213 -312 -170 -172 -256 -153 -88 -70 -121 -151 -106 -103 -101 -71 -81 -108 -105 -135 -205 -275 -345 -291 0 0 0 0 -318 -24 -66
0 0 0 0 0 0 0 0 -18 -287 -180 -62 -14 -63 -142 -93 -74 -81 -164 -165 -127 -124 -126 -158 -200 -196 -179 -145 -168 -237 -304 -394 -474 -65 -496 -479 0 -12 -239 0 -314 0 -61
0 0 0 0 0 0 0 0 0 -271 -189 -131 -67 -204 -257 -170 -179 -232 -338 -476 -369 -623 -409 -278 -381 0 0 -425 -380 -328 -457 -146 -156 -467 -144 0 0 0 -321 -231 0 -16 -133
0 0 0 0 0 0 0 0 0 0 -312 -120 -154 -286 -292 -370 -206 0 0 0 0 0 0 0 0 0 0 0 0 0 0 0 0 0 0 0 0 -176 0 0 0 0 0
0 0 0 0 0 0 0 0 0 0 0 0 -50 0 0 0 0 0 0 0 0 0 0 0 0 0 0 0 0 0 0 0 0 0 0 0 0 0 0 0 0 0 0
0 0 0 0 0 0 0 0 0 0 0 0 0 0 0 0 0 0 0 0 0 0 0 0 0 0 0 0 0 0 0 0 0 0 0 0 0 0 0 0 0 0 0
0 0 0 0 0 0 0 0 0 0 0 0 0 0 0 0 0 0 0 0 0 0 0 0 0 0 0 0 0 0 0 0 0 0 0 0 0 0 0 0 0 0 0
Wind_Speed
18 16 14 14 13 24 42 41 38 33 34 30 29 26 25 25 25 23 23 23 22 23 24 27 28 28 28 27 25 24 22 22 22 23 21 21 21 21 22 24 24 23 18
17 16 15 17 16 15 32 43 41 39 35 34 30 29 26 25 25 25 23 23 22 23 24 24 27 28 29 29 28 27 25 25 25 25 24 23 23 24 24 24 24 27 25
16 18 26 26 24 20 27 33 37 40 40 37 35 33 30 26 22 25 25 24 24 22 23 24 25 27 30 30 29 30 29 28 27 28 28 28 27 27 27 27 26 27 29
29 24 27 30 29 27 28 30 33 31 37 42 35 35 33 27 22 19 22 24 25 25 24 23 26 27 29 32 32 32 31 31 31 31 31 31 30 30 30 30 30 31 31
25 28 28 37 36 34 31 31 31 29 25 27 32 29 25 15 11 15 13 21 26 27 25 24 24 26 29 31 34 34 34 34 34 34 35 34 34 33 33 29 32 32 34
26 24 29 32 35 36 36 33 34 38 32 28 22 23 24 24 17 14 13 15 25 31 29 24 22 24 28 31 32 35 37 36 37 36 37 37 36 35 34 33 32 33 34
24 25 25 28 28 29 33 35 37 37 37 37 33 29 22 20 18 18 19 15 18 32 34 28 24 16 19 25 30 30 34 40 40 35 39 36 37 34 33 35 34 30 29
29 30 28 29 34 31 28 32 36 36 38 40 39 36 34 30 22 24 23 19 17 26 29 28 25 23 12 14 15 20 20 25 35 35 38 38 33 35 26 34 33 31 31
28 27 32 33 33 33 30 30 33 34 35 38 39 39 37 38 26 24 23 21 23 25 23 17 17 22 15 13 13 17 18 35 29 31 36 39 38 38 30 30 33 31 30
28 29 30 30 33 32 32 32 32 32 36 35 37 37 37 39 34 26 22 23 24 22 22 23 21 25 18 15 13 14 17 22 23 27 30 36 38 37 33 21 26 28 24
31 30 32 33 34 34 35 35 35 31 31 33 36 35 35 34 34 27 23 23 22 22 22 22 28 21 20 18 17 16 16 22 20 17 21 35 37 35 33 26 19 18 19
29 33 32 33 37 35 37 37 37 36 29 30 34 35 34 33 30 27 22 24 23 24 25 33 32 28 27 25 22 24 27 20 26 29 28 32 33 35 34 30 23 16 13
30 31 31 33 35 35 38 38 38 36 34 33 34 38 35 30 32 28 25 21 23 23 29 33 34 32 31 32 25 22 23 28 25 26 24 30 28 27 29 30 29 25 23
35 31 32 29 31 36 38 40 40 38 35 35 35 39 34 33 30 29 28 28 24 26 24 32 35 37 34 33 33 31 29 27 26 26 27 26 26 27 28 29 28 23 21
40 37 34 30 35 38 41 41 43 43 36 36 41 42 34 32 28 25 24 25 25 26 31 33 34 36 36 34 33 32 29 28 27 26 28 28 27 28 31 30 25 23 19
43 38 37 36 37 38 40 43 43 45 41 38 45 41 40 42 30 24 22 23 23 24 26 28 30 31 32 31 30 31 30 28 28 29 28 27 27 29 33 28 25 23 21
44 40 40 39 39 39 41 42 43 41 44 45 46 49 51 43 30 26 25 21 23 22 26 27 27 28 29 29 29 30 29 28 27 27 27 30 33 33 31 31 28 25 25
43 43 41 42 40 38 40 42 43 44 44 46 46 46 51 51 41 32 28 27 30 27 28 27 26 27 29 30 30 30 29 27 25 26 28 30 31 32 33 33 29 28 26
47 45 44 44 44 44 45 44 45 46 46 47 42 40 43 44 42 38 32 32 31 30 27 29 25 25 26 27 27 26 25 26 25 25 25 23 22 25 30 33 33 31 27
45 43 45 45 44 46 47 48 48 48 49 48 46 46 39 38 42 42 38 36 36 34 31 29 27 26 22 24 24 23 24 23 22 20 20 21 24 28 31 33 36 41 32
44 43 42 43 44 44 46 47 46 46 46 47 47 44 41 40 42 42 39 37 36 36 32 31 29 26 22 20 18 18 19 19 20 23 25 27 30 38 41 53 76 73 29
40 41 41 40 40 42 44 44 43 46 45 44 44 41 36 37 36 35 34 32 29 27 28 25 23 23 21 20 21 21 22 23 26 30 28 27 29 31 29 35 3 24 20
35 36 38 39 37 39 40 39 40 43 44 43 36 34 32 32 31 30 30 28 27 24 22 21 20 22 22 21 22 24 24 24 25 24 24 21 20 15 14 9 15 19 17
29 29 31 32 34 37 37 34 34 33 30 28 29 29 27 25 25 24 23 23 22 21 21 20 21 21 21 21 19 19 21 21 18 16 15 16 17 17 14 13 9 14 15
23 24 24 24 21 25 29 28 30 30 24 22 20 20 18 15 16 8 16 16 16 15 17 18 16 19 16 18 18 20 20 19 18 19 14 12 10 10 11 13 13 15 16
19 19 20 17 18 20 20 19 21 23 23 23 15 13 13 14 11 12 7 11 14 14 14 15 17 19 15 20 21 21 19 18 19 14 13 11 11 12 12 14 17 18 18
Wind_Direction
195 198 204 200 228 245 222 225 220 227 211 202 200 193 192 192 194 190 194 192 192 192 196 208 213 220 219 224 232 245 254 256 220 237 232 245 253 266 275 284 285 284 275
212 232 223 244 240 210 196 217 229 220 237 213 203 199 196 196 194 194 195 194 191 194 200 201 215 228 226 230 235 245 256 251 242 238 245 248 253 267 271 274 281 298 288
203 235 251 252 252 249 253 252 248 243 236 242 241 210 204 199 190 193 197 199 198 196 198 201 203 215 227 231 243 246 249 257 265 259 254 266 265 273 277 280 279 284 295
254 253 251 252 252 254 256 255 254 256 253 243 255 253 211 202 194 189 193 199 204 206 204 203 209 214 220 234 244 246 255 260 263 259 259 262 270 289 291 286 285 301 298
252 254 254 251 252 253 256 257 257 257 257 260 261 265 270 270 251 200 199 198 206 210 209 208 209 213 220 224 248 254 259 265 268 267 265 272 273 280 284 314 297 300 317
252 250 255 255 253 253 255 257 257 255 258 259 252 258 264 267 263 219 224 211 209 218 217 212 210 213 220 223 227 238 257 267 266 277 276 269 279 278 287 297 304 313 320
251 251 253 255 255 256 256 257 257 257 258 259 260 260 251 248 235 222 218 233 219 219 224 219 218 214 215 219 224 225 232 250 260 283 274 287 286 293 298 289 297 319 329
260 252 252 254 254 256 259 259 259 259 258 258 259 262 263 261 240 223 222 229 251 219 219 221 221 222 230 223 221 220 222 227 281 283 277 281 293 291 309 292 298 311 319
256 258 253 253 255 256 259 261 262 261 261 260 260 261 262 263 258 233 235 241 228 225 225 243 238 226 234 235 233 225 225 239 293 291 283 275 276 279 302 305 300 312 321
263 263 259 258 255 257 259 262 263 264 262 263 263 263 263 263 264 258 245 250 231 238 265 272 236 227 238 253 257 278 234 230 299 298 295 285 282 285 293 308 308 312 325
270 267 263 260 257 257 259 261 263 266 266 265 265 266 266 266 266 262 247 248 240 256 237 267 278 267 241 250 251 264 248 294 296 292 299 291 286 290 292 300 307 313 321
278 268 268 265 259 260 261 261 262 263 267 267 267 268 268 268 269 268 254 232 248 257 265 275 278 278 278 277 274 231 231 283 293 294 296 293 291 288 286 293 302 308 310
275 272 280 276 268 266 263 263 263 262 263 266 267 265 268 271 270 268 266 249 234 252 270 274 276 278 279 280 278 276 282 288 289 290 290 291 292 292 293 293 298 304 308
277 287 286 287 286 269 266 262 262 260 262 264 266 264 269 270 273 273 273 271 261 264 259 274 275 275 277 278 280 282 283 285 286 287 288 289 291 292 292 294 297 302 303
277 283 290 294 281 278 262 264 260 258 261 263 261 260 268 271 274 274 274 275 273 270 273 273 274 274 275 277 278 280 282 283 284 285 284 284 285 287 289 292 295 299 297
276 282 283 284 281 275 268 267 266 258 261 264 259 263 265 263 276 273 270 273 277 278 276 273 273 274 275 277 278 280 281 281 281 282 280 278 280 284 286 290 291 290 291
276 278 281 284 281 280 270 267 266 267 260 260 260 258 254 265 273 274 273 267 270 271 276 278 276 274 276 278 279 280 282 283 283 279 278 278 279 280 281 285 285 285 288
277 278 279 277 278 277 271 268 268 268 267 263 263 263 258 258 267 272 273 275 274 270 271 275 277 277 278 279 280 280 281 283 284 285 284 283 279 277 278 278 278 280 284
272 275 273 273 267 268 271 271 271 268 268 266 270 269 266 265 266 268 271 273 274 271 267 269 272 278 281 280 280 279 279 281 285 286 289 286 285 285 282 280 278 278 280
270 273 268 269 271 270 270 270 271 271 269 268 266 265 270 270 267 267 268 270 273 274 272 271 272 275 277 279 279 278 279 279 278 278 280 282 284 287 286 285 285 284 274
267 268 270 270 269 269 269 267 268 270 271 270 267 267 266 269 270 269 270 271 271 273 274 274 274 276 275 276 275 277 279 277 278 282 283 284 287 287 292 288 277 276 261
267 266 266 270 270 268 270 271 274 271 273 274 271 269 266 268 269 271 271 272 273 274 278 276 277 279 278 278 279 280 280 278 282 285 287 293 299 301 301 323 114 234 259
268 268 266 265 270 267 269 273 277 276 274 273 275 272 267 267 267 271 269 270 270 274 279 276 278 279 283 285 288 288 286 286 288 289 292 293 299 296 309 320 291 277 282
269 269 272 274 273 272 274 274 277 280 281 284 279 274 268 265 267 267 270 269 270 275 278 284 285 279 280 286 291 295 299 298 299 299 300 298 300 302 295 295 297 289 296
272 271 276 281 286 284 275 275 277 275 282 282 284 285 280 270 276 275 261 270 275 279 287 291 291 290 287 299 303 304 298 298 304 301 308 307 307 304 298 306 297 299 298
276 276 278 284 287 291 288 287 280 275 274 281 289 285 286 283 286 277 294 267 276 288 292 292 306 298 311 316 309 300 304 309 302 299 303 304 312 304 307 302 301 303 302